Location: Altmatt
(47.1333°N, 8.7000°E)
Time: 19:17:00
(UTC+00:00)

Aureole 2 Rocket - Pass Details

Date: 13 July 2020
Orbit: 304 x 428 km, 73.9° (Epoch: 11 August)

Event Time Altitude Azimuth Distance (km) Brightness Sun altitude
Rises 20:52:03 0° 340° (NNW) 2,179 7.4 -12.4°
Reaches altitude 10° 20:54:00 10° 345° (NNW) 1,353 6.0 -12.6°
Maximum altitude 20:56:56 61° 66° (ENE) 431 2.2 -12.9°
Enters shadow 20:58:25 26° 139° (SE) 784 3.0 -13.1°
